Weather History for Los Angeles, CA

Change the Weather History Date:

Wednesday, November 6, 2013

  Actual Average Record
Temperature  
Mean Temperature 67 °F 63 °F  
Max Temperature 80 °F 71 °F 91 °F (2006)
Min Temperature 53 °F 55 °F 45 °F (1947)
Degree Days  
Heating Degree Days 0 3  
Month to date heating degree days 3 17  
Since 1 July heating degree days 43 61  
Cooling Degree Days 2 1  
Month to date cooling degree days 9 6  
Year to date cooling degree days 671 537  
Growing Degree Days 16 (Base 50)    
Moisture  
Dew Point 31 °F    
Average Humidity 34    
Maximum Humidity 60    
Minimum Humidity 7    
Precipitation  
Precipitation 0.00 in 0.03 in 1.26 in (1969)
Month to date precipitation 0.00 0.17  
Year to date precipitation 2.66 9.83  
Since 1 July precipitation 0.05 1.02  
Sea Level Pressure  
Sea Level Pressure 30.15 in    
Wind  
Wind Speed 7 mph (North)    
Max Wind Speed 15 mph    
Max Gust Speed 20 mph    
Visibility 10 miles    
Events      
T = Trace of Precipitation, MM = Missing Value Source: NWS Daily Summary

Daily Weather History Graph

Daily Weather History Graph

Search for Another Location

Airport:

Trip Planner

Search our weather history database for the weather conditions in past years. The results will help you decide how hot, cold, wet, or windy it might be!

Date:

Astronomy

Nov. 06, 2013 Rise Set
Actual Time 6:17 AM PST 4:56 PM PST
Civil Twilight 5:51 AM PST 5:22 PM PST
Nautical Twilight 5:21 AM PST 5:51 PM PST
Astronomical Twilight 4:52 AM PST 6:21 PM PST
Moon 9:33 AM PST (11/6) 8:09 PM PST (11/6)
Length of Visible Light 11h 30m
Length of Day
10h 38m
Waxing Crescent, 14% of the Moon is Illuminated
Nov 6
Waxing Crescent
Nov 9
First Quarter
Nov 17
Full
Nov 25
Last Quarter
Dec 2
New

Hourly Weather History & Observations

Time (PST) Temp. Dew Point Humidity Pressure Visibility Wind Dir Wind Speed Gust Speed Precip Events Conditions
12:53 AM 62.1 °F 34.0 °F 35% 30.14 in 10.0 mi NE 5.8 mph - N/A   Clear
1:53 AM 57.0 °F 32.0 °F 39% 30.15 in 10.0 mi Variable 3.5 mph - N/A   Clear
2:53 AM 55.0 °F 30.0 °F 38% 30.14 in 10.0 mi East 4.6 mph - N/A   Clear
3:53 AM 55.9 °F 27.0 °F 33% 30.14 in 10.0 mi NE 5.8 mph - N/A   Clear
4:53 AM 57.0 °F 25.0 °F 29% 30.15 in 10.0 mi ENE 5.8 mph - N/A   Clear
5:53 AM 57.9 °F 24.1 °F 27% 30.16 in 10.0 mi North 3.5 mph - N/A   Partly Cloudy
6:53 AM 61.0 °F 19.9 °F 21% 30.17 in 10.0 mi NNE 8.1 mph - N/A   Partly Cloudy
7:53 AM 64.9 °F 19.0 °F 17% 30.20 in 10.0 mi North 5.8 mph - N/A   Scattered Clouds
8:08 AM 66.2 °F 19.4 °F 17% 30.20 in 10.0 mi North 6.9 mph - N/A   Clear
8:53 AM 70.0 °F 16.0 °F 13% 30.20 in 10.0 mi NE 8.1 mph - N/A   Partly Cloudy
9:53 AM 73.0 °F 17.1 °F 12% 30.20 in 10.0 mi NE 4.6 mph - N/A   Partly Cloudy
10:53 AM 75.9 °F 17.1 °F 11% 30.19 in 10.0 mi Calm Calm - N/A   Partly Cloudy
11:53 AM 79.0 °F 10.9 °F 8% 30.16 in 10.0 mi Variable 3.5 mph - N/A   Mostly Cloudy
12:53 PM 73.0 °F 36.0 °F 26% 30.14 in 10.0 mi West 12.7 mph - N/A   Mostly Cloudy
1:53 PM 72.0 °F 37.0 °F 28% 30.13 in 10.0 mi West 10.4 mph - N/A   Mostly Cloudy
2:53 PM 71.1 °F 35.1 °F 27% 30.13 in 10.0 mi West 10.4 mph - N/A   Mostly Cloudy
3:53 PM 69.1 °F 43.0 °F 39% 30.13 in 10.0 mi West 12.7 mph - N/A   Scattered Clouds
4:53 PM 66.0 °F 50.0 °F 56% 30.13 in 10.0 mi West 11.5 mph - N/A   Partly Cloudy
5:53 PM 64.9 °F 46.0 °F 50% 30.14 in 10.0 mi West 11.5 mph - N/A   Partly Cloudy
6:53 PM 64.0 °F 46.0 °F 52% 30.14 in 10.0 mi West 5.8 mph - N/A   Clear
7:53 PM 63.0 °F 48.0 °F 58% 30.14 in 10.0 mi WSW 5.8 mph - N/A   Clear
8:53 PM 62.1 °F 44.1 °F 52% 30.13 in 10.0 mi East 4.6 mph - N/A   Clear
9:53 PM 64.9 °F 39.0 °F 39% 30.12 in 10.0 mi ENE 4.6 mph - N/A   Clear
10:53 PM 68.0 °F 26.1 °F 21% 30.11 in 10.0 mi NE 8.1 mph - N/A   Clear
11:53 PM 66.9 °F 21.9 °F 18% 30.10 in 10.0 mi Variable 5.8 mph - N/A   Clear